CRRES DEB (CANISTER)

基本信息
目录编号:
21948
目录名称:
CRRES DEB (CANISTER)
国际标识:
1990-065S
轨道中心:
EARTH
物体状态:
在轨
发射日期:
1990-07-25 UTC
轨道信息
数据来源: 国际轨道数据
星历时间: 2026-07-08T21:33:03+0800
半长轴: 17595.75km
偏心率: 0.6202742
轨道倾角: 17.839°
近地点辐角: 167.091°
升交点赤经: 49.343°
平近点角: 222.032°
近地点: 303.423km
远地点: 22131.803km
周期: 387.143分钟
每日圈数: 3.719556
详细信息
发射场:
AFETR
轨道高度:
LEO
数据来源:
AOE Integration Group
参考系:
TEME
时间系统:
UTC
历元类型:
SGP4
2D轨道图
3D轨道图
轨道高度分析图
轨道倾角分析图
轨道综合分析图
查看轨道综合分析图